Regional Weather Roundup
Issued by NWS State College, PA

Home | Current Version | Previous Version | Text Only | Print | Product List | Glossary On
Versions: 1 2 3 4 5 6 7 8 9 10 11 12 13 14 15 16 17 18 19 20 21 22 23 24 25 26 27 28 29 30 31 32 33 34 35 36 37 38 39 40 41 42 43 44 45 46 47 48 49 50
269
ASUS41 KCTP 200410
RWRCTP

REGIONAL WEATHER ROUNDUP
NATIONAL WEATHER SERVICE STATE COLLEGE PA
1100 PM EST MON FEB 19 2018

Note: "fair" indicates few or no clouds below 12,000 feet with no
significant weather and/or obstructions to visibility.

* = STATION THAT DOES NOT REPORT PRECIPITATION /E.G. RAIN...SNOW...ETC/
    THUNDER OR FOG.

PAZ002>004-007>009-013>016-020>023-029>032-200500-
WESTERN PENNSYLVANIA

CITY           SKY/WX    TMP DP  RH WIND       PRES   REMARKS
ERIE           FAIR      64  55  72 S18G30    30.02F
MEADVILLE      MOCLDY    59  55  87 S10       30.08S
FRANKLIN*      FAIR      58  53  84 SW12      30.11S
NEW CASTLE     FAIR      62  56  80 SW8G16    30.11R
BEAVER COUNTY  NOT AVBL
BUTLER*        FAIR      60  54  80 S10       30.14R
PITTSBURGH INT MOCLDY    61  54  77 S3        30.14R
PITTSBURGH     FAIR      62  51  67 S15       30.14S
INDIANA*       CLEAR     59  54  82 CALM      30.20R
LATROBE        FAIR      63  54  72 SW12      30.18S
WASHINGTON CO* MOCLDY    66  53  63 S14       30.19R
$$

PAZ004>006-010>012-017>019-024>028-033>037-041-042-045-046-049>053-200500-
CENTRAL PENNSYLVANIA

CITY           SKY/WX    TMP DP  RH WIND       PRES   REMARKS
BRADFORD       MOCLDY    50  49  96 CALM      30.14S
DUBOIS         FAIR      50  47  89 S5        30.15R
CLEARFIELD     FOG       38  37  97 N7        30.19F VSB 1/2
JOHNSTOWN      FAIR      55  49  80 S8        30.20S
ALTOONA        FAIR      40  40 100 CALM      30.24S FOG
STATE COLLEGE  FAIR      38  38  99 W3        30.24S FOG
WILLIAMSPORT   CLOUDY    42  41  96 E7        30.28R FOG
SELINSGROVE    FOG       40  39  97 CALM      30.30S VSB 1/4
FT INDIANTOWN  FOG       39  39 100 NE3       30.31S VSB 3/8
CAPITAL CITY   CLOUDY    46  46 100 CALM      30.31S FOG
HARRISBURG     CLOUDY    44  42  93 E5        30.31S FOG
YORK           CLOUDY    46  45  96 S5        30.30F
$$

PAZ038>040-043-044-047-048-054-055-060>062-067>071-200500-
EASTERN PENNSYLVANIA

CITY           SKY/WX    TMP DP  RH WIND       PRES   REMARKS
SCRANTON       FAIR      43  41  93 SW5       30.25F
MOUNT POCONO   CLOUDY    40  40 100 SW7       30.26F FOG
ALLENTOWN      FOG       38  35  89 NE3       30.32S VSB 1/4
QUAKERTOWN*    FOG       37  37 100 CALM      30.32F VSB 1/4
READING        FOG       38  38 100 N3        30.32S VSB 1/4
LANCASTER      FOG       42  42 100 CALM      30.32S VSB 1/4
COATESVILLE    FOG       43 N/A N/A CALM      30.33F VSB<1/4
POTTSTOWN      FOG       40  40 100 CALM      30.34S VSB 1/4
BLUE BELL      CLOUDY    45  45 100 SW3       30.34F VSB 1/2
DOYLESTOWN     FOG       42  42 100 CALM      30.32F VSB 3/4
WILLOW GROVE   NOT AVBL
NORTH PHILA    FOG       51  49  92 S5        30.35S VSB 1/4
PHILADELPHIA   FOG       47  47 100 SW3       30.35S VSB 1/2
$$




USA.gov is the U.S. government's official web portal to all federal, state and local government web resources and services.